Simultaneous Nadir Overpasses (SNOs) Predictions

Prediction of SNOs between LANDSAT-8 and NOAA-19 Satellite Orbit:

Table of predicted SNOs for the next 14.0 days since TLE Epoch: 9/13/2016
Index Date (LANDSAT-8) Time (LANDSAT-8) Lat,Lon (LANDSAT-8) SZA (LANDSAT-8 ) Date (NOAA-19) Time (NOAA-19) Lat,Lon (NOAA-19) SZA (NOAA-19 ) Distance(km) Time Diff (sec)
1 09/14/2016 23:38:06 -75.57, 12.54 107.31 09/14/2016 23:36:59 -75.63, 9.72 107.34 78.16 67
2 09/15/2016 00:27:42 75.04, 178.73 72.14 09/15/2016 00:27:43 75.05, 178.83 72.15 3.08 1
3 09/17/2016 05:11:58 75.12, 107.88 73.08 09/17/2016 05:10:45 75.19, 107.73 73.13 8.26 73
4 09/17/2016 06:01:27 -75.06, -84.66 106.98 09/17/2016 06:01:47 -75.04, -84.58 107.00 3.20 20
5 09/19/2016 10:45:43 -75.14,-155.52 106.04 09/19/2016 10:44:48 -75.14,-155.59 106.05 2.06 55
6 09/19/2016 11:35:10 75.05, 11.91 73.89 09/19/2016 11:35:43 75.05, 11.96 73.89 1.78 33
7 09/21/2016 16:19:26 75.13, -58.97 74.83 09/21/2016 16:18:44 75.14, -59.02 74.83 1.87 42
8 09/21/2016 17:08:55 -75.07, 108.51 105.23 09/21/2016 17:09:47 -75.06, 108.44 105.23 1.91 52
9 09/23/2016 21:53:11 -75.14, 37.63 104.29 09/23/2016 21:52:47 -75.13, 37.54 104.30 2.67 24
10 09/23/2016 22:42:38 75.05,-154.96 75.63 09/23/2016 22:43:43 75.05,-154.96 75.65 0.16 65
11 09/26/2016 03:26:54 75.12, 134.14 76.57 09/26/2016 03:26:43 75.11, 134.18 76.56 1.74 11
